Location: Monfort
(47.1967°N, 0.2115°W)
Time: 12:15:04
(UTC+00:00)

Cosmos 1656 - Pass Details

Date: 24 October 2020
Orbit: 796 x 851 km, 71.1° (Epoch: 27 November)

Event Time Altitude Azimuth Distance (km) Brightness Sun altitude
Rises 18:14:37 0° 178° (S) 3,326 6.8 -13.9°
Reaches altitude 10° 18:17:11 10° 170° (S) 2,408 6.0 -14.3°
Maximum altitude 18:22:09 35° 106° (ESE) 1,307 4.2 -15.1°
Enters shadow 18:26:16 15° 47° (NE) 2,144 5.4 -15.8°
